This is the latest recevied weather packets stored in our database for station/object OM8AGG-10. If no packets are shown the sender has not sent any weather packets the latest 10 day(s).
| Time | Temp. | Humidity | Pressure | Rain* | Wind** | Luminosity | Snow |
|---|---|---|---|---|---|---|---|
| 1777696472 | 3.89° C | 97% | 1026.8 hPa | - | - | - | - |
| 1777695572 | 2.78° C | 99% | 1026.6 hPa | - | - | - | - |
| 1777694672 | 2.22° C | 99% | 1026.5 hPa | - | - | - | - |
| 1777693772 | 1.67° C | 99% | 1026.5 hPa | - | - | - | - |
| 1777692872 | 1.67° C | 97% | 1026.4 hPa | - | - | - | - |
| 1777691972 | 1.67° C | 95% | 1026.4 hPa | - | - | - | - |
| 1777691072 | 2.22° C | 94% | 1026.4 hPa | - | - | - | - |
| 1777690172 | 3.33° C | 90% | 1026.3 hPa | - | - | - | - |
| 1777689272 | 4.44° C | 88% | 1026.2 hPa | - | - | - | - |
| 1777688372 | 4.44° C | 87% | 1026.3 hPa | - | - | - | - |
| 1777687472 | 5° C | 84% | 1026.3 hPa | - | - | - | - |
| 1777686571 | 5° C | 84% | 1026.3 hPa | - | - | - | - |
| 1777685671 | 5° C | 86% | 1026.4 hPa | - | - | - | - |
| 1777684771 | 5° C | 88% | 1026.4 hPa | - | - | - | - |
| 1777683871 | 5° C | 90% | 1026.4 hPa | - | - | - | - |
| 1777682971 | 5.56° C | 87% | 1026.4 hPa | - | - | - | - |
| 1777682071 | 5.56° C | 86% | 1026.4 hPa | - | - | - | - |
| 1777681171 | 5.56° C | 85% | 1026.4 hPa | - | - | - | - |
| 1777680271 | 5.56° C | 85% | 1026.5 hPa | - | - | - | - |
| 1777679371 | 5.56° C | 86% | 1026.6 hPa | - | - | - | - |
| 1777677570 | 5.56° C | 84% | 1026.6 hPa | - | - | - | - |
| 1777676670 | 5° C | 86% | 1026.7 hPa | - | - | - | - |
| 1777675770 | 4.44° C | 87% | 1026.6 hPa | - | - | - | - |
| 1777674870 | 3.89° C | 88% | 1026.6 hPa | - | - | - | - |
| 1777673971 | 3.89° C | 87% | 1026.7 hPa | - | - | - | - |
* Rain since midnight (hover to see other rain measurements)
** Current wind speed in m/s (hover to see current wind gust speed)